Home   Weather   Belém   Past weeks

Flag for Brazil Past Weather in Belém, Pará, Brazil — Yesterday and Last 2 Weeks

Now
75 °F

Passing clouds.


Feels Like: 75 °F
Forecast: 75 / 83 °F
Wind: 5 mph from Northeast

Location: Belem Aeroporto

Current Time: Jan 18, 2017 at 2:59:10 am

Latest Report: Jan 18, 2017 at 2:00 am


Visibility: N/A

Pressure: 29.80 "Hg

Humidity: 89%

Dew Point: 72 °F

Location of BelémLocation

Past Weather in Belém — Graph

°F

Belém Temperature Yesterday

Maximum temperature yesterday: 84 °F (at 11:00 am)
Minimum temperature yesterday: 77 °F (at 3:00 am)
Average temperature yesterday: 80 °F

High & Low Weather Summary for the Past Weeks

 TemperatureHumidityPressure
High90 °F (Jan 6, 1:00 pm)100% (Jan 3, 6:00 am)29.92 "Hg (Jan 3, 6:00 am)
Low39 °F (Jan 15, 6:00 pm)19% (Jan 8, 11:00 am)29.56 "Hg (Jan 13, 11:00 am)
Average78 °F86%29.83 "Hg
* Reported Jan 3 2:00 am — Jan 18 2:00 am, Belém, Weather by CustomWeather, © 2017

Note: Actual official high and low records may vary slightly from our data, if they occured in-between our weather recording intervals... More about our weather records

Advertising

Belém Weather History for the Previous 24 Hours

Scroll right to see more
 ConditionsComfort  
Time TempWeatherWind HumidityBarometerVisibility
2:00 am
Wed, Jan 18
75 °FPassing clouds.5 mph89%29.80 "HgN/A
1:00 am77 °FLight rain. Partly cloudy.5 mph89%29.83 "HgN/A
12:00 am77 °FLight rain. Partly cloudy.2 mph94%29.86 "HgN/A
11:00 pm
Tue, Jan 17
77 °FLight rain. Passing clouds.5 mph94%29.83 "HgN/A
10:00 pm79 °FPartly cloudy.5 mph89%29.86 "HgN/A
9:00 pm81 °FPartly cloudy.7 mph84%29.80 "HgN/A
8:00 pm81 °FLight rain. Partly cloudy.8 mph84%29.77 "HgN/A
7:00 pm81 °FLight rain. Passing clouds.8 mph79%29.74 "HgN/A
6:00 pm82 °FBroken clouds.5 mph79%29.74 "HgN/A
5:00 pm82 °FBroken clouds.6 mph79%29.71 "HgN/A
4:00 pm84 °FPartly sunny.8 mph74%29.68 "HgN/A
3:00 pm82 °FPartly sunny.8 mph79%29.71 "HgN/A
2:00 pm81 °FLight rain. Partly sunny.3 mph89%N/AN/A
1:00 pm82 °FScattered showers. Partly sunny.5 mph84%29.80 "HgN/A
12:00 pm82 °FScattered showers. Broken clouds.14 mph74%N/AN/A
11:00 am84 °FBroken clouds.14 mph74%29.83 "HgN/A
10:00 am82 °FBroken clouds.12 mph79%29.83 "HgN/A
9:00 am79 °FBroken clouds.6 mph89%29.83 "HgN/A
8:00 am77 °FBroken clouds.3 mph89%29.83 "HgN/A
7:00 am77 °FScattered clouds.6 mph94%29.80 "HgN/A
6:00 am77 °FPassing clouds.6 mph89%29.80 "HgN/A
5:00 am77 °FClear.5 mph94%29.80 "Hg10 mi
4:00 am77 °FClear.3 mph89%29.77 "Hg10 mi
3:00 am77 °FPassing clouds.7 mph94%29.80 "HgN/A
2:00 am79 °FPassing clouds.3 mph89%29.80 "HgN/A
Weather by CustomWeather, © 2017

See weather overviewHow to use our weather pages